Zurück zum Katalog

TIANHUI 5A

AktivWissenschaftSSO
NORAD 58199·PAYLOAD·🇨🇳 China

Gestartet Oct 31, 2023 von Taiyuan Satellite Launch Center

Loading…

Nächste Überflüge (nächste 24 Stunden)

TLE

AktuellSource: Space-Track

Epoche: Sep 14, 2026, 11:18 UTC

1 58199U 23168A   26257.47123618  .00000267  00000-0  35392-4 0  9997
2 58199  97.8214 263.5822 0001535  89.4726 270.6667 14.87584771155875

Verfolge TIANHUI 5A in Echtzeit mit AllMySat

Download on the App Store